Weather History for Middleton, WI

Change the Weather History Date:

Friday, March 15, 2013

  Actual Average (KMSN) Record (KMSN)
Temperature  
Mean Temperature 32 °F 34 °F  
Max Temperature 35 °F 43 °F 82 °F (2012)
Min Temperature 28 °F 24 °F 0 °F (1993)
Degree Days  
Heating Degree Days 34 31  
Month to date heating degree days 514  
Since 1 July heating degree days 6000  
Cooling Degree Days 0 0  
Month to date cooling degree days 0  
Year to date cooling degree days 0  
Moisture  
Dew Point 30 °F    
Average Humidity 91    
Maximum Humidity 96    
Minimum Humidity 78    
Precipitation  
Precipitation 0.08 in 0.07 in 1.49 in (1943)
Month to date precipitation 0.92  
Year to date precipitation 3.60  
Snow  
Snow 0.00 in 0.20 in 7.00 in (1959)
Month to date snowfall 4.0  
Since 1 July snowfall 45.1  
Snow Depth -    
Sea Level Pressure  
Sea Level Pressure 29.89 in    
Wind  
Wind Speed 3 mph (East)    
Max Wind Speed 14 mph    
Max Gust Speed 18 mph    
Visibility 6 miles    
Events      
T = Trace of Precipitation, MM = Missing Value Source: NWS Daily Summary

Daily Weather History Graph

Daily Weather History Graph

Search for Another Location

Airport:

Trip Planner

Search our weather history database for the weather conditions in past years. The results will help you decide how hot, cold, wet, or windy it might be!

Date:

Astronomy

Mar. 15, 2013 Rise Set
Actual Time 7:09 AM CDT 7:04 PM CDT
Civil Twilight 6:41 AM CDT 7:33 PM CDT
Nautical Twilight 6:08 AM CDT 8:06 PM CDT
Astronomical Twilight 5:34 AM CDT 8:39 PM CDT
Moon 8:53 AM CDT 11:26 PM CDT
Length of Visible Light 12h 51m
Length of Day
11h 55m
Waxing Crescent, 15% of the Moon is Illuminated
Mar 15
Waxing Crescent
Mar 19
First Quarter
Mar 27
Full
Apr 2
Last Quarter
Apr 10
New

Hourly Weather History & Observations

Time (CDT) Temp. Windchill Dew Point Humidity Pressure Visibility Wind Dir Wind Speed Gust Speed Precip Events Conditions
12:15 AM 28.6 °F - 27.3 °F 95% 30.03 in 7.0 mi Calm Calm - N/A   Clear
12:35 AM 29.8 °F - 28.4 °F 94% 30.02 in 7.0 mi Calm Calm - N/A   Clear
12:55 AM 30.0 °F - 28.4 °F 94% 30.02 in 7.0 mi Calm Calm - N/A   Clear
1:15 AM 29.8 °F - 28.4 °F 94% 30.01 in 7.0 mi Calm Calm - N/A   Clear
1:35 AM 29.1 °F 23.0 °F 27.7 °F 94% 30.00 in 7.0 mi West 5.8 mph - N/A   Clear
1:55 AM 29.8 °F - 28.4 °F 94% 29.99 in 7.0 mi Calm Calm - N/A   Clear
2:15 AM 30.2 °F - 28.8 °F 94% 30.00 in 7.0 mi Calm Calm - N/A   Clear
2:35 AM 29.8 °F 26.3 °F 28.4 °F 94% 29.99 in 7.0 mi West 3.5 mph - N/A   Clear
2:55 AM 29.3 °F - 28.0 °F 95% 29.98 in 5.0 mi Calm Calm - N/A   Clear
3:15 AM 29.1 °F - 27.9 °F 95% 29.97 in 5.0 mi Calm Calm - N/A   Clear
3:35 AM 29.3 °F - 28.2 °F 96% 29.97 in 5.0 mi Calm Calm - N/A   Clear
3:55 AM 28.4 °F - 27.3 °F 96% 29.96 in 5.0 mi Calm Calm - N/A   Clear
4:15 AM 29.7 °F - 28.4 °F 95% 29.95 in 5.0 mi Calm Calm - N/A   Clear
4:35 AM 30.2 °F - 28.6 °F 94% 29.94 in 7.0 mi Calm Calm - N/A   Clear
4:55 AM 29.5 °F - 28.0 °F 94% 29.93 in 5.0 mi Calm Calm - N/A   Clear
5:15 AM 30.2 °F - 28.8 °F 94% 29.93 in 7.0 mi Calm Calm - N/A   Scattered Clouds
5:35 AM 29.7 °F - 27.9 °F 93% 29.93 in 7.0 mi Calm Calm - N/A   Clear
5:55 AM 29.8 °F - 28.4 °F 94% 29.93 in 5.0 mi Calm Calm - N/A   Mostly Cloudy
6:15 AM 29.5 °F - 28.2 °F 95% 29.93 in 5.0 mi Calm Calm - N/A   Overcast
6:35 AM 29.8 °F - 28.6 °F 95% 29.93 in 5.0 mi Calm Calm - N/A   Overcast
6:55 AM 30.9 °F 27.5 °F 29.7 °F 95% 29.94 in 7.0 mi WNW 3.5 mph - N/A   Overcast
7:15 AM 31.1 °F 27.7 °F 29.1 °F 92% 29.94 in 5.0 mi WNW 3.5 mph - N/A   Mostly Cloudy
7:35 AM 31.1 °F 25.4 °F 28.9 °F 92% 29.93 in 5.0 mi WNW 5.8 mph - N/A   Mostly Cloudy
7:55 AM 31.3 °F 26.6 °F 29.1 °F 92% 29.93 in 5.0 mi WNW 4.6 mph - N/A   Scattered Clouds
8:15 AM 31.8 °F - 29.3 °F 90% 29.93 in 5.0 mi Calm Calm - N/A   Scattered Clouds
8:35 AM 32.0 °F 27.5 °F 29.7 °F 91% 29.92 in 5.0 mi West 4.6 mph - N/A   Mostly Cloudy
8:55 AM 32.4 °F 27.9 °F 30.0 °F 91% 29.93 in 5.0 mi West 4.6 mph - N/A   Mostly Cloudy
9:15 AM 32.5 °F 29.3 °F 30.0 °F 90% 29.92 in 5.0 mi NW 3.5 mph - N/A   Overcast
9:35 AM 32.9 °F - 29.1 °F 86% 29.90 in 5.0 mi Calm Calm - N/A   Overcast
10:55 AM 34.5 °F - 29.3 °F 81% 29.91 in 5.0 mi Calm Calm - N/A   Overcast
11:15 AM 34.5 °F - 29.3 °F 81% 29.91 in 5.0 mi Calm Calm - N/A   Overcast
11:35 AM 34.7 °F - 29.8 °F 82% 29.90 in 5.0 mi Calm Calm - N/A   Overcast
11:55 AM 34.5 °F - 29.7 °F 82% 29.90 in 5.0 mi Calm Calm - N/A   Overcast
12:15 PM 34.3 °F - 30.0 °F 84% 29.91 in 3.0 mi Calm Calm - N/A   Overcast
12:35 PM 34.2 °F - 31.1 °F 89% 29.90 in 2.5 mi Calm Calm - 0.01 in   Overcast
12:55 PM 34.7 °F - 31.1 °F 87% 29.91 in 2.5 mi Calm Calm - 0.03 in   Overcast
1:15 PM 34.3 °F - 32.0 °F 91% 29.90 in 2.5 mi Calm Calm - 0.02 in   Overcast
1:35 PM 34.3 °F - 32.4 °F 92% 29.90 in 2.0 mi Calm Calm - 0.03 in   Overcast
1:55 PM 34.7 °F - 32.4 °F 91% 29.90 in 2.0 mi Calm Calm - 0.04 in   Overcast
2:15 PM 34.7 °F 31.8 °F 32.7 °F 92% 29.89 in 1.8 mi NE 3.5 mph - N/A   Overcast
2:35 PM 34.5 °F 30.4 °F 32.9 °F 94% 29.88 in 1.5 mi NE 4.6 mph - 0.01 in   Overcast
2:55 PM 34.5 °F 31.6 °F 32.7 °F 93% 29.87 in 2.5 mi ENE 3.5 mph - 0.01 in   Overcast
3:15 PM 34.7 °F 28.8 °F 32.5 °F 92% 29.86 in 2.5 mi ENE 6.9 mph - N/A   Overcast
3:35 PM 34.5 °F 29.4 °F 32.7 °F 93% 29.84 in 2.5 mi East 5.8 mph - N/A   Overcast
3:55 PM 35.1 °F 31.0 °F 33.3 °F 93% 29.83 in 2.0 mi East 4.6 mph - N/A   Overcast
4:15 PM 35.1 °F 27.9 °F 32.9 °F 92% 29.82 in 3.0 mi East 9.2 mph - N/A   Overcast
4:35 PM 35.1 °F 27.4 °F 32.9 °F 92% 29.81 in 2.5 mi East 10.4 mph - N/A   Overcast
4:55 PM 34.9 °F 29.0 °F 32.9 °F 92% 29.81 in 2.5 mi East 6.9 mph - N/A   Overcast
5:15 PM 34.9 °F 28.3 °F 32.9 °F 92% 29.83 in 2.5 mi ENE 8.1 mph - N/A   Overcast
5:35 PM 34.9 °F 29.9 °F 32.9 °F 92% 29.83 in 3.0 mi ENE 5.8 mph - N/A   Overcast
5:55 PM 34.9 °F - 32.9 °F 92% 29.83 in 3.0 mi Calm Calm - N/A   Overcast
6:15 PM 35.1 °F 32.2 °F 32.9 °F 92% 29.83 in 3.0 mi East 3.5 mph - N/A   Overcast
6:35 PM 34.9 °F 32.0 °F 32.9 °F 92% 29.84 in 2.5 mi ENE 3.5 mph - N/A   Overcast
6:55 PM 35.1 °F 32.2 °F 33.3 °F 93% 29.84 in 2.5 mi East 3.5 mph - N/A   Overcast
7:15 PM 35.1 °F 28.6 °F 33.3 °F 93% 29.84 in 2.5 mi East 8.1 mph - N/A   Overcast
7:35 PM 35.1 °F 28.6 °F 32.5 °F 91% 29.84 in 7.0 mi ESE 8.1 mph - N/A   Overcast
7:55 PM 35.1 °F 28.6 °F 32.4 °F 90% 29.84 in 10.0 mi ESE 8.1 mph - N/A   Overcast
8:15 PM 34.9 °F 27.1 °F 32.5 °F 91% 29.84 in 7.0 mi ESE 10.4 mph - N/A   Overcast
8:35 PM 34.3 °F 25.0 °F 32.2 °F 92% 29.84 in 10.0 mi ESE 13.8 mph 17.3 mph N/A   Overcast
8:55 PM 33.8 °F 25.3 °F 32.0 °F 93% 29.83 in 10.0 mi East 11.5 mph - N/A   Overcast
9:15 PM 33.4 °F 23.9 °F 31.8 °F 94% 29.82 in 10.0 mi East 13.8 mph - N/A   Overcast
9:35 PM 33.1 °F 24.9 °F 31.5 °F 94% 29.82 in 10.0 mi East 10.4 mph - N/A   Overcast
9:55 PM 32.9 °F 24.1 °F 30.9 °F 92% 29.81 in 10.0 mi East 11.5 mph - N/A   Overcast
10:15 PM 32.9 °F 25.3 °F 30.2 °F 90% 29.82 in 10.0 mi East 9.2 mph - N/A   Overcast
10:35 PM 32.4 °F 23.5 °F 29.8 °F 90% 29.82 in 10.0 mi East 11.5 mph - N/A   Overcast
10:55 PM 32.0 °F 22.5 °F 28.4 °F 87% 29.80 in 10.0 mi East 12.7 mph 18.4 mph N/A   Overcast
11:15 PM 32.0 °F 23.0 °F 27.3 °F 83% 29.80 in 10.0 mi East 11.5 mph - N/A   Overcast
11:35 PM 32.0 °F 23.0 °F 25.7 °F 78% 29.80 in 10.0 mi East 11.5 mph - N/A   Overcast
11:55 PM 32.0 °F 22.5 °F 25.9 °F 78% 29.80 in 10.0 mi ENE 12.7 mph - N/A   Overcast